FW6369 Weather Reports


Display with metric or nautical units.
time (UTC)temp
F
wind
direction
speed
MPH
gust
MPH
rain 1hr
in
rain 24hr
in
rain mn
in
humidity
%
barometer
mb
20260904054602 59 0 0.0 0.0 0.00 0.00 0.00 95 1012.1
20260904053054 59 0 0.0 0.0 0.00 0.00 0.00 94 1012.2
20260904051608 60 0 0.0 0.0 0.00 0.00 0.00 94 1012.3
20260904050105 60 0 0.0 0.0 0.00 0.00 0.00 94 1012.3
20260904044557 60 0 0.0 0.0 0.00 0.00 0.00 94 1012.2
20260904043102 60 0 0.0 0.0 0.00 0.00 0.00 94 1012.2
20260904041603 60 0 0.0 1.0 0.00 0.00 0.00 94 1012.2
20260904034601 60 0 0.0 1.0 0.00 0.00 0.00 94 1012.1
20260904033102 60 0 0.0 1.0 0.00 0.00 0.00 94 1012.0
20260904031602 60 0 0.0 1.0 0.00 0.00 0.00 94 1011.9
20260904030059 60 0 0.0 1.0 0.00 0.00 0.00 94 1011.8
20260904024600 60 0 0.0 1.0 0.00 0.00 0.00 94 1011.9
20260904023056 60 0 0.0 1.0 0.00 0.00 0.00 94 1011.9
20260904021558 60 0 0.0 1.0 0.00 0.00 0.00 94 1012.0
20260904020100 60 0 0.0 1.0 0.00 0.00 0.00 93 1012.1
20260904014607 60 0 0.0 0.0 0.00 0.00 0.00 93 1012.3
20260904013056 60 0 0.0 1.0 0.00 0.00 0.00 93 1012.4
20260904011559 61 0 0.0 1.0 0.00 0.00 0.00 93 1012.3
20260904010114 61 0 0.0 1.0 0.00 0.00 0.00 93 1012.4
20260904004557 61 0 0.0 1.0 0.00 0.00 0.00 93 1012.4
20260904003106 61 0 0.0 1.0 0.00 0.00 0.00 93 1012.4
20260904001557 61 0 0.0 2.0 0.00 0.00 0.00 91 1012.6
20260903234600 63 348 0.0 1.0 0.00 0.00 0.00 92 1012.9
20260903233104 63 0 0.0 1.0 0.00 0.00 0.00 89 1012.9
20260903231557 64 0 0.0 0.0 0.00 0.00 0.00 87 1013.1
20260903230056 65 0 0.0 1.0 0.00 0.00 0.00 85 1013.2
20260903224555 66 0 0.0 1.0 0.00 0.00 0.00 83 1013.3
20260903223101 68 0 0.0 1.0 0.00 0.00 0.00 79 1013.2
20260903221602 68 248 0.0 3.0 0.00 0.00 0.00 77 1013.1
20260903220100 68 245 0.0 3.0 0.00 0.00 0.00 77 1013.1
20260903214554 68 0 0.0 3.0 0.00 0.00 0.00 76 1013.2
20260903213102 68 256 0.0 5.0 0.00 0.00 0.00 77 1013.3
20260903211557 68 0 0.0 3.0 0.00 0.00 0.00 78 1013.1
20260903210120 68 0 0.0 3.0 0.00 0.00 0.00 77 1013.3
20260903204613 68 0 0.0 3.0 0.00 0.00 0.00 81 1013.3
20260903203058 68 0 0.0 3.0 0.00 0.00 0.00 81 1013.3
20260903201557 67 0 0.0 4.0 0.00 0.00 0.00 86 1013.4
20260903194600 66 0 0.0 3.0 0.00 0.00 0.00 96 1013.7
20260903193102 66 0 0.0 2.0 0.00 0.00 0.00 97 1014.0
20260903191556 66 0 0.0 2.0 0.00 0.00 0.00 97 1014.2
20260903190057 65 0 0.0 2.0 0.00 0.00 0.00 97 1014.4
20260903184559 64 0 0.0 1.0 0.00 0.00 0.00 98 1014.5
20260903183100 63 0 0.0 2.0 0.00 0.00 0.00 97 1014.5
20260903181557 63 0 0.0 0.0 0.00 0.00 0.00 97 1014.5
20260903180100 63 0 0.0 1.0 0.00 0.00 0.00 97 1014.4
20260903174600 62 0 0.0 1.0 0.00 0.00 0.00 97 1014.3
20260903173058 62 82 0.0 0.0 0.00 0.00 0.00 97 1014.3
20260903171558 62 0 0.0 0.0 0.00 0.00 0.00 97 1014.3
20260903170056 62 0 0.0 1.0 0.00 0.00 0.00 97 1014.3
20260903164602 62 0 0.0 0.0 0.00 0.00 0.00 97 1014.2
20260903163108 62 0 0.0 0.0 0.00 0.00 0.00 97 1014.4
20260903161555 62 0 0.0 0.0 0.00 0.00 0.00 97 1014.4
20260903160112 61 0 0.0 0.0 0.00 0.00 0.00 96 1014.4
20260903154601 61 0 0.0 1.0 0.00 0.00 0.00 96 1014.5
20260903153057 61 0 0.0 1.0 0.00 0.00 0.00 96 1014.6
20260903151556 61 0 0.0 1.0 0.00 0.00 0.00 96 1014.6
20260903150111 61 0 0.0 0.0 0.00 0.00 0.00 96 1014.5
20260903144603 61 0 0.0 0.0 0.00 0.00 0.00 96 1014.5
20260903143114 61 0 0.0 1.0 0.00 0.00 0.00 96 1014.4
20260903141601 61 0 0.0 0.0 0.00 0.00 0.00 96 1014.4
20260903140111 61 0 0.0 0.0 0.00 0.00 0.00 96 1014.4
20260903134559 61 0 0.0 0.0 0.00 0.00 0.00 96 1014.3
20260903133106 60 0 0.0 0.0 0.00 0.00 0.00 96 1014.2
20260903131556 60 0 0.0 0.0 0.00 0.00 0.00 95 1014.3
20260903130100 60 0 0.0 0.0 0.00 0.00 0.00 95 1014.4
20260903124603 60 0 0.0 0.0 0.00 0.00 0.00 94 1014.5
20260903123056 60 0 0.0 0.0 0.00 0.00 0.00 93 1014.7
20260903121553 61 0 0.0 0.0 0.00 0.00 0.00 93 1015.0
20260903120107 61 0 0.0 0.0 0.00 0.00 0.00 92 1014.9
20260903114557 61 0 0.0 1.0 0.00 0.00 0.00 91 1014.9
20260903113102 61 0 0.0 1.0 0.00 0.00 0.00 90 1015.0
20260903111557 60 0 0.0 0.0 0.00 0.00 0.00 90 1015.1
20260903104558 60 0 0.0 1.0 0.00 0.00 0.00 90 1015.3
20260903103056 60 0 0.0 1.0 0.00 0.00 0.00 90 1015.3
20260903101603 60 0 0.0 1.0 0.00 0.00 0.00 91 1015.3
20260903094604 59 0 0.0 1.0 0.00 0.00 0.00 92 1015.6
20260903093119 59 0 0.0 1.0 0.00 0.00 0.00 92 1015.7
20260903091559 59 0 0.0 1.0 0.00 0.00 0.00 92 1016.1
20260903084603 58 0 0.0 0.0 0.00 0.00 0.00 91 1016.2
20260903083113 58 0 0.0 0.0 0.00 0.00 0.00 91 1016.3
20260903081617 58 0 0.0 0.0 0.00 0.00 0.00 91 1016.4
20260903080119 59 0 0.0 0.0 0.00 0.00 0.00 90 1016.3
20260903074628 59 0 0.0 1.0 0.00 0.00 0.00 90 1016.3
20260903073111 59 0 0.0 1.0 0.00 0.00 0.00 90 1016.5
20260903071610 59 0 0.0 1.0 0.00 0.00 0.00 90 1016.5
20260903070113 59 0 0.0 0.0 0.00 0.00 0.00 90 1016.6
20260903064601 58 0 0.0 0.0 0.00 0.00 0.00 90 1016.7
20260903063104 58 0 0.0 1.0 0.00 0.00 0.00 89 1016.8
20260903061606 58 0 0.0 1.0 0.00 0.00 0.00 89 1016.7
20260903060108 58 0 0.0 1.0 0.00 0.00 0.00 88 1016.8